P/2004 H3 (Larsen)                                                    

Epoch 2004 Mar. 16.0 TT = JDT 2453080.5  

T 2004 Mar. 12.93497 TT                                 Nakano

q   2.4372391            (2000.0)            P               Q

n   0.12825105     Peri.  346.49267     -0.87275588     +0.40076069

a   3.8942943      Node   220.97376     -0.39902110     -0.91459211

e   0.3741513      Incl.   25.15525     -0.28121048     +0.05396421

P   7.68 (+/- 0.12 day)

From 88 observations 2004 Apr. 22-June 13, mean residual 0".64.

Residuals in seconds of arc 

2004/                     040424 474  0.0   0.2+    040514 360  0.5+  0.7-  

040422 691  0.0   0.2+    040424 474  0.8-  0.5-    040514 360  0.3-  0.7-  

040422 691  0.0   0.1+    040424 474  0.2+  0.7-    040514 360  0.1+  0.5-  

040422 691  0.1+  0.2+    040424 474  0.2-  0.1-    040515 J87  0.9-  0.3-  

040422 428  1.0-  0.3-    040424 474  0.8+  1.0-    040515 J87  0.7+  0.6-  

040422 428  0.2-  0.7-    040425 859  0.1-  0.4-    040515 J87  0.4-  0.4-  

040422 428  2.0-  0.3-    040425 859  0.5+  0.4-    040515 704  0.5+  0.1-  

040422 113  1.2+  0.3-    040425 859  2.0-  0.3+    040515 704  0.7+  0.1-  

040422 113  0.8+  0.0     040425 704  0.2+  0.4+    040515 704 (2.4+  1.3-) 

040422 113  0.8+  0.4+    040425 704  0.4-  0.4+    040515 704  1.5+  0.5-  

040423 704  0.0   0.8+    040425 704  0.4+  1.0+    040515 704 (0.2-  2.2+) 

040423 704  0.1+  1.3+    040425 372 (2.6+  2.9-)   040516 104  0.8-  1.7+  

040423 704  0.2-  0.9+    040426 204  0.1+  0.0     040516 104  0.8-  0.5-  

040423 704  0.2+  1.4-    040426 204  0.5-  0.4-    040516 104  0.6+  1.4+  

040423 704  0.9+  1.8+    040426 204  0.1-  0.8-    040517 704  0.1-  0.2-  

040423 704  0.7+  0.3-    040426 699  1.1-  0.1-    040517 704  0.4+  0.5+  

040423 704 (0.9+  2.4+)   040426 699  0.0   0.4+    040517 704  0.6-  0.6+  

040423 704  0.0   0.4+    040426 699  0.6+  0.1+    040517 215  1.0-  0.7-  

040423 474  0.9+  0.0     040426 699  0.2+  0.4-    040521 704  0.3-  0.1-  

040423 474  0.3+  0.0     040427 D74 (3.2+  5.2-)   040521 704  0.2+  1.0+  

040423 474  0.0   0.2-    040427 D74 (0.3-  2.3-)   040521 704  0.8-  0.3+  

040423 428  0.6-  0.8-    040427 D74 (2.9-  2.3+)   040521 704  0.1-  0.8+  

040423 428  0.7-  0.1-    040428 360  0.6+  0.7-    040521 704  0.1+  0.7+  

040423 428  0.4-  1.1+    040428 360  0.7-  0.6+    040524 360  0.1+  0.5-  

040423 428  0.2+  0.0     040428 360  0.2-  0.2-    040524 360  0.0   0.4-  

040423 J87  1.5+  0.1+    040510 608  0.6+  0.5+    040524 360  0.3+  0.9-  

040423 J87  0.4-  0.8-    040510 608  0.1+  1.2+    040605 170  0.6-  0.7-  

040423 J87  0.5-  0.3+    040510 608  0.9+  1.2+    040605 170  0.6-  0.5-  

040423 J87  1.0-  0.9-    040512 699  0.4-  0.6-    040605 170  0.1+  1.0-  

040424 651  0.1-  0.3-    040512 699  0.1+  0.4+    040613 360  0.6+  0.0   

040424 651  0.7+  0.2+    040512 699  0.1-  0.7-    040613 360  0.2-  0.8+  

040424 651  0.2+  0.0     040512 699  0.4+  0.4-    040613 360  0.3+  0.5+  



NAKANO

         **** Don't distribute anyone except personal use only ****

                (C) Copyright 2005 OAA/ComputingSection

write mail from CFAD0::NAKANO on 2005-05-07 04:29:59(JST).

 



    P/2004 H3 (Larsen)                                                    

T 2004 Mar. 12.92457 TT                                 Nakano

q   2.4373619            (2000.0)            P               Q

n   0.12824985     Peri.  346.49074     -0.87276522     +0.40071439

a   3.8943186      Node   220.97377     -0.39898945     -0.91460950

e   0.3741237      Incl.   25.15885     -0.28122639     +0.05401327

P   7.69 (+/- 0.12 day)

From 88 observations 2004 Apr. 22-June 13.



NAKANO

         **** Don't distribute anyone except personal use only ****

                (C) Copyright 2004 OAA/ComputingSection

write mail from CFAD0::NAKANO on 2004-07-03 22:20:30(JST).

 



  P/2004 H3 (Larsen)                                                    

T 2004 Mar. 12.92581 TT                                 Nakano

q   2.4375021            (2000.0)            P               Q

n   0.12823183     Peri.  346.49216     -0.87275041     +0.40072403

a   3.8946833      Node   220.97394     -0.39901369     -0.91460191

e   0.3741463      Incl.   25.16190     -0.28123799     +0.05407029

P   7.69 (+/- 0.57 day)

From 81 observations 2004 Apr. 22-May 24.



NAKANO

         **** Don't distribute anyone except personal use only ****

                (C) Copyright 2004 OAA/ComputingSection

write mail from CFAD0::NAKANO on 2004-06-02 06:08:27(JST).

 

◎P/2004 H3の軌道と予報位置です



 那賀川の堀寿夫氏と前野拓氏から4月27日,久万の中村彰正氏から28日の

観測が報告されました.中村氏の CCD全光度は18.6等でした.



    P/2004 H3 (Larsen)                                                    

T 2004 Mar. 13.57637 TT                                 Nakano

q   2.4356890            (2000.0)            P               Q

n   0.12866014     Peri.  346.67630     -0.87153945     +0.40373093

a   3.8860350      Node   220.97113     -0.40192543     -0.91327527

e   0.3732200      Incl.   25.11029     -0.28084681     +0.05412602

P   7.66 (+/-12.57 day)

From 49 observations 2004 Apr. 22-28.

 

Date/        TT  R.A.(2000) Decl.     Delta   r     Daily motion  Mag.  Moon Age

              h    h  m       。  ,                      ,  / PA 。  m1      。

2004 Apr. 25 12  14 46.59  -16 19.9   1.453  2.453    18.0 / 333  18.2  123  .29

          26 12  14 46.02  -16 03.9   1.452  2.454    18.1 / 333  18.2  111  .38

          27 12  14 45.45  -15 47.8   1.451  2.454    18.2 / 333  18.2   99  .48

          28 12  14 44.87  -15 31.6   1.451  2.455    18.2 / 332  18.2   86  .58

          29 12  14 44.28  -15 15.4   1.450  2.456    18.3 / 332  18.2   73  .67

          30 12  14 43.70  -14 59.3   1.450  2.457    18.3 / 332  18.2   60  .77

     May   1 12  14 43.11  -14 43.1   1.450  2.458    18.3 / 332  18.2   46  .85

           2 12  14 42.53  -14 26.9   1.451  2.459    18.2 / 332  18.2   32  .92

           3 12  14 41.95  -14 10.7   1.452  2.460    18.2 / 332  18.2   18  .97

           4 12  14 41.37  -13 54.6   1.453  2.461    18.1 / 332  18.2    3 1.00

           5 12  14 40.79  -13 38.5   1.454  2.461    18.1 / 332  18.2   13  .99

           6 12  14 40.22  -13 22.5   1.456  2.462    18.0 / 333  18.2   28  .96

           7 12  14 39.65  -13 06.6   1.458  2.463    17.9 / 333  18.2   43  .90

           8 12  14 39.09  -12 50.7   1.460  2.464    17.7 / 333  18.2   58  .82

           9 12  14 38.54  -12 34.9   1.462  2.465    17.6 / 333  18.2   73  .72

          10 12  14 37.99  -12 19.3   1.465  2.467    17.4 / 333  18.3   87  .61

          11 12  14 37.45  -12 03.7   1.468  2.468    17.3 / 333  18.3  101  .50

          12 12  14 36.93  -11 48.3   1.471  2.469    17.1 / 334  18.3  115  .39

          13 12  14 36.41  -11 33.0   1.475  2.470    16.9 / 334  18.3  128  .29

          14 12  14 35.90  -11 17.9   1.479  2.471    16.6 / 334  18.3  141  .20

          15 12  14 35.41  -11 02.9   1.483  2.472    16.4 / 334  18.3  154  .13

          16 12  14 34.93  -10 48.1   1.487  2.473    16.2 / 335  18.3  166  .07

          17 12  14 34.46  -10 33.5   1.492  2.474    15.9 / 335  18.3  176  .03

          18 12  14 34.01  -10 19.1   1.497  2.476    15.6 / 336  18.3  168  .00

          19 12  14 33.58  -10 04.9   1.502  2.477    15.3 / 336  18.3  156  .00

          20 12  14 33.16  -09 50.9   1.507  2.478    15.0 / 337  18.3  144  .02

          21 12  14 32.75  -09 37.1   1.513  2.479    14.7 / 337  18.3  132  .05

          22 12  14 32.36  -09 23.5   1.519  2.480    14.4 / 338  18.4  121  .10

          23 12  14 32.00  -09 10.1   1.525  2.482    14.1 / 338  18.4  109  .16

          24 12  14 31.64  -08 57.0   1.531  2.483    13.8 / 339  18.4   96  .23

          25 12  14 31.31  -08 44.2   1.538  2.484    13.4 / 340  18.4   84  .32

          26 12  14 31.00  -08 31.5   1.545  2.486    13.1 / 341  18.4   72  .42

          27 12  14 30.71  -08 19.2   1.552  2.487    12.8 / 341  18.4   59  .52

          28 12  14 30.43  -08 07.1   1.559  2.488    12.4 / 342  18.4   46  .62

          29 12  14 30.18  -07 55.2   1.567  2.490    12.1 / 343  18.4   33  .72

          30 12  14 29.95  -07 43.6   1.575  2.491    11.7 / 344  18.4   20  .82

          31 12  14 29.74  -07 32.3   1.583  2.492    11.4 / 346  18.5    8  .90

     June  1 12  14 29.55  -07 21.3   1.591  2.494    11.1 / 347  18.5   13  .96

NAKANO

         **** Don't distribute anyone except personal use only ****

                (C) Copyright 2004 OAA/ComputingSection

write mail from CFAD0::NAKANO on 2004-05-02 05:30:08(JST).

         **** Don't distribute anyone except personal use only ****

                (C) Copyright 2004 OAA/ComputingSection

write mail from CFAD0::NAKANO on 2004-05-02 05:30:32(JST).

 

戻ります。